Flag for Russia Weather past 2 weeks in Yekaterinburg, Russia

Now
48 °F

Broken clouds.


Feels Like: 45 °F
Forecast: 35 / 41 °F
Wind: 8 mph from Northwest

Location: Ekaterinburg

Current Time: Sep 16, 2014 at 3:48:47 PM

Latest Report: Sep 16, 2014 at 3:30 PM


Visibility: N/A

Pressure: 29.68 "Hg

Humidity: 71%

Dew point: 39 °F

Location of YekaterinburgLocation

Historic Weather in Yekaterinburg — Graph

°F

Yekaterinburg temperature yesterday

Maximum temperature yesterday: 57 °F (at 4:00 PM)
Minimum temperature yesterday: 27 °F (at 6:30 AM)
Average temperature yesterday: 42 °F

Past Weeks' High & Low Weather Summary

 TemperatureHumidityPressure
High70 °F (Sep 12, 5:00 PM)100% (Sep 2, 2:00 AM)30.30 "Hg (Sep 2, 2:00 AM)
Low27 °F (Sep 15, 6:30 AM)51% (Sep 15, 5:30 PM)29.59 "Hg (Sep 6, 10:30 AM)
Average49 °F89%30.04 "Hg
* Reported Sep 1 2:00 PM — Sep 16 2:30 PM, Yekaterinburg, Weather by CustomWeather, © 2014

Note: Actual official high and low records may vary slightly from our data, if they occured in-between our weather recording intervals... More about our weather records

Advertising

Yekaterinburg weather history for previous 24 hours

 ConditionsComfort  
Time TempWeatherWind HumidityBarometerVisibility
2:30 PM
Sep 16
46 °FBroken clouds.10 mph82%29.68 "HgN/A
2:00 PM46 °FMostly cloudy.8 mph82%29.68 "HgN/A
1:30 PM46 °FMore clouds than sun.8 mph82%29.68 "HgN/A
1:00 PM46 °FMostly cloudy.8 mph87%29.68 "HgN/A
12:30 PM46 °FOvercast.8 mph87%29.68 "HgN/A
12:00 PM46 °FOvercast.10 mph93%29.68 "HgN/A
11:30 AM46 °FOvercast.10 mph93%29.68 "HgN/A
11:00 AM45 °FOvercast.8 mph100%29.68 "HgN/A
10:30 AM45 °FCloudy.6 mph100%29.71 "HgN/A
10:00 AM45 °FMore clouds than sun.6 mph100%29.71 "HgN/A
9:30 AM45 °FMore clouds than sun.8 mph93%29.71 "HgN/A
8:30 AM43 °FMostly cloudy.6 mph100%29.71 "HgN/A
8:00 AM41 °FOvercast.3 mph100%29.71 "HgN/A
7:00 AM41 °FClear.No wind100%29.74 "Hg10 mi
6:30 AM41 °FClear.No wind100%29.74 "Hg10 mi
6:00 AM41 °FClear.No wind100%29.74 "Hg10 mi
5:30 AM41 °FPassing clouds.No wind100%29.77 "HgN/A
5:00 AM41 °FPassing clouds.No wind100%29.77 "HgN/A
4:30 AM41 °FPassing clouds.No wind93%29.77 "HgN/A
4:00 AM37 °FClear.No wind100%29.80 "Hg10 mi
3:30 AM36 °FClear.No wind100%29.80 "Hg10 mi
3:00 AM37 °FClear.No wind93%29.80 "Hg10 mi
2:30 AM39 °FClear.No wind93%29.83 "Hg10 mi
2:00 AM39 °FPassing clouds.No wind100%29.83 "Hg4 mi
1:30 AM39 °FClear.No wind100%29.83 "Hg10 mi
1:00 AM39 °FClear.No wind100%29.83 "Hg10 mi
12:30 AM37 °FClear.No wind93%29.86 "Hg10 mi
12:00 AM37 °FPassing clouds.No wind100%29.86 "Hg4 mi
11:30 PM
Sep 15
39 °FClear.No wind93%29.89 "Hg10 mi
11:00 PM39 °FClear.1 mph87%29.89 "Hg10 mi
10:30 PM43 °FClear.3 mph93%29.89 "Hg10 mi
10:00 PM43 °FClear.6 mph93%29.89 "Hg10 mi
9:30 PM45 °FClear.8 mph87%29.89 "Hg10 mi
9:00 PM45 °FSunny.3 mph81%29.89 "Hg10 mi
8:30 PM46 °FSunny.6 mph82%29.92 "Hg10 mi
8:00 PM50 °FSunny.6 mph71%29.92 "Hg10 mi
7:30 PM54 °FSunny.8 mph63%29.92 "Hg10 mi
7:00 PM55 °FSunny.8 mph55%29.92 "Hg10 mi
6:30 PM57 °FSunny.10 mph51%29.95 "Hg10 mi
6:00 PM57 °FSunny.10 mph51%29.95 "Hg10 mi
5:30 PM57 °FPassing clouds.13 mph51%29.95 "HgN/A
5:00 PM57 °FSunny.6 mph55%29.98 "Hg10 mi
4:30 PM57 °FSunny.8 mph55%29.98 "Hg10 mi
4:00 PM57 °FSunny.8 mph55%30.01 "Hg10 mi
3:30 PM55 °FPassing clouds.6 mph59%30.01 "HgN/A
3:00 PM55 °FPassing clouds.6 mph63%30.04 "HgN/A
Weather by CustomWeather, © 2014

See weather overviewHow to use our weather pages